Погода в Тынде

Хотите узнать прогноз погоды в Тынде? Тогда Вам сюда: Погода в Тынде

Поиск расширенной информации на нашем сайте:

Полезная информация:

Новости сайта



02.01.2020
Опубликован Долгосрочный прогноз погоды по городам России и ближнего зарубежья на январь 2020 года.
Карты: Прогноз на январь и февраль 2020 года, Сравнение прогнозируемой аномалии приземной температуры воздуха на январь 2020 года по разным моделям.




Погода в Тынде - сегодня

Время (UTC), дата Ветер
(°,м/с) 
Видим.   Явления Облачность Т
(°С)
Тd
(°С)
f(%) Тe
(°С)
Pmin
(гПа)
dP
(гПа)
Po
(мм)
O2
(г/м3)
Тmin Tmax R s Состояние
почвы
00 30.11.20 270 (З) 20000 м    10/0 верхняя 
[Cs]
-15.6 -21.2 62 -19  1029.8  0.9  720  309  -22      21  равномерный
сухой снег
100% 
03 30.11.20 270 (З) 20000 м    8/0 верхняя 
[Ci fib]
-12.4 -21.5 47 -12  1029.2  0.3  721  306           
06 30.11.20 330 (СЗ) 20000 м    8/0 верхняя 
[Cc]
-11.1 -21 44 -11  1028.9  721  304           
09 30.11.20 270 (З) 20000 м    6/0 верхняя 
[Ci fib]
-14.4 -22.3 51 -17  1030.5  0.6  721  308           
12 30.11.20 280 (З) 20000 м    4/0 верхняя 
[Cs]
-16.4 -22.9 57 -19  1031.2  0.2  721  311    -11       
15 30.11.20 260 (З) 20000 м    ясно 
-20.3 -24.2 71 -23  1032.3  721  316           
18 30.11.20 250 (З) 20000 м    ясно 
-23.3 -26.4 76 -26  1033  -0.3  721  319           
21 30.11.20 250 (З) 20000 м    ясно 
-26.1 -29.3 74 -31  1033.3  -0.4  721  323           
00 01.12.20 250 (З) 20000 м    3/0 верхняя 
[Cc]
-27.4 -29.8 80 -33  1033.8  -0.1  721  325  -27.5      21  равномерный
сухой снег
100% 
03 01.12.20 240 (ЮЗ) 20000 м    ясно 
-23 -27 70 -28  1031.8  -0.7  720  319           
06 01.12.20 240 (ЮЗ) 20000 м    4/0 верхняя 
[Cc]
-15.8 -22.6 56 -18  1028.5  -1.1  719  309           
09 01.12.20 270 (З) 20000 м    ясно 
-18.2 -23.6 63 -21  1029  -0.2  719  312           
12 01.12.20 250 (З) 20000 м    ясно 
-22.6 -26.6 70 -27  1030.5  0.2  719  318    -15.8       
15 01.12.20 250 (З) 20000 м    ясно 
-25.5 -28.8 74 -29  1030.8  -0.4  719  321           
18 01.12.20 250 (З) 20000 м    4/0 средняя 
[Ac trans]
-25.6 -29.1 73 -31  1029.9  -0.9  718  321           
21 01.12.20 250 (З) 20000 м    3/0 средняя 
[Ac trans]
-26.4 -29.9 72 -32  1029  -1  718  322           
00 02.12.20 250 (З) 20000 м    10/0 средняя, верхняя 
[Ac As|Ci fib]
-25.9 -29.5 72 -31  1028  -0.8  717  321  -27.1      21  равномерный
сухой снег
100% 
03 02.12.20 250 (З) 20000 м  слаб. снег  10/0 средняя 
[As op]
-22.6 -26.1 73 -27  1026.2  -0.8  716  316           
06 02.12.20 250 (З) 20000 м  {снег}  10/0 средняя, верхняя 
[As op|Cc]
-16.6 -21.9 64 -19  1022.9  -1.5  715  308           
09 02.12.20 270 (З) 20000 м    6/0 верхняя 
[Ci fib]
-18.3 -23 67 -21  1024  0.7  716  311           
12 02.12.20 250 (З) 20000 м  позёмок  10/0 верхняя 
[Cs]
-21.7 -25.2 73 -27  1025.1  716  315    -16.5  0.2     
15 02.12.20 250 (З) 20000 м  позёмок  8/0 средняя 
[Ac As]
-20.9 -24.5 73 -25  1023.7  -1  715  314           
18 02.12.20 250 (З) 20000 м    8/0 средняя 
[Ac As]
-21.4 -24.5 76 -26  1022.5  -1.3  714  314           
21 02.12.20 240 (ЮЗ) 20000 м    10/0 средняя 
[Ac und]
-20.5 -23.6 76 -25  1021.4  -0.8  714  312           
00 03.12.20 250 (З) 20000 м    8/0 средняя, верхняя 
[Ac lent|Ci fib]
-19.1 -22.1 77 -23  1020.8  -0.1  713  311  -22      21  равномерный
сухой снег
100% 
Время (UTC), дата Ветер
(°,м/с) 
Видим.   Явления Облачность Т
(°С)
Тd
(°С)
f(%) Тe
(°С)
Pmin
(гПа)
dP
(гПа)
Po
(мм)
O2
(г/м3)
Тmin Tmax R s Состояние
почвы

Для получения пояснительной информации подведите курсор к названию столбца.

ПОГОДА в Тынде - архив

Всё, что Вы хотите узнать о погоде в Тынде - удобно и подробно!

Выберите нужную дату (начиная с 1 января 2019* года) и нажмите кнопку "Найти".
Будут отображены архивные сводки погоды по пункту Тында, начиная с указанной даты.


Отображать данные в формате CSV (для использования в таблицах Excel)


Внимание! Наш архив погоды предназначен исключительно для личного некоммерческого использования в познавательных целях. Если Вам необходимы официальные справки о состоянии погоды (для производственных, юридических, коммерческих и т.п. целей), обращайтесь в органы Росгидромета.

*Примечание: данная дата относится к архиву по метеостанциям СССР (Россия, СНГ, Балтия).
Архив по метеостанциям Зарубежной Европы и Азии (кроме Китая) хранится 10 дней, по другим регионам земного шара (Китай, Африка, Америка, Австралия, Океания) - 1 день.

Тында - район местоположения метеостанции


Название, широта, долгота, высота метеостанции:
Тында 55.2°ш. 124.7°д. 528 м над ур. моря [Российская Федерация]

Дополнительная информация

В oтличие oт бoльшинства пoгoдных сайтoв мы публикуем пoдрoбную метеoинфoрмацию в детальнoм прoфессиoнальнoм фoрмате.

Характеристики температуры и влажнoсти вoздуха измеряются на высoте 2 м в тени вдали oт зданий и деревьев.
Скoрoсть ветра измеряется на высoте 10 м (на урoвне рoста челoвека скoрoсть ветра ниже в 1.5-2 раза). Если метеoстанция нахoдится в гoрoде или в лесу, тo скoрoсть ветра занижена на 2-4 м/с пo сравнению с oткрытым местoм. Скoрoсть ветра над акватoриями крупных рек и oзёр, а также на вершинах хoлмoв на 2-5 м/с выше, чем в oбычных услoвиях.
Атмoсфернoе давление в разных тoчках местнoсти мoжет значительнo oтличаться oт давления на метеoстанции, в зависимoсти oт услoвий рельефа (при пoдъёме на 10 м давление пoнижается примернo на 1 мм рт.ст.).